Weather History for Rockland, ME

Change the Weather History Date:

Sunday, April 21, 2013

  Actual Average Record
Temperature  
Mean Temperature 42 °F -  
Max Temperature 50 °F 49 °F 66 °F (2007)
Min Temperature 33 °F 33 °F 28 °F (2001)
Degree Days  
Heating Degree Days 24    
Moisture  
Dew Point 21 °F    
Average Humidity 47    
Maximum Humidity 81    
Minimum Humidity 25    
Precipitation  
Precipitation 0.00 in - - ()
Sea Level Pressure  
Sea Level Pressure 30.45 in    
Wind  
Wind Speed 7 mph (NW)    
Max Wind Speed 17 mph    
Max Gust Speed 24 mph    
Visibility 10 miles    
Events      
Averages and records for this station are not official NWS values.
T = Trace of Precipitation, MM = Missing Value Source: NWS Daily Summary

Daily Weather History Graph

Daily Weather History Graph

Search for Another Location

Airport:

Trip Planner

Search our weather history database for the weather conditions in past years. The results will help you decide how hot, cold, wet, or windy it might be!

Date:

Astronomy

Apr. 21, 2013 Rise Set
Actual Time 5:42 AM EDT 7:28 PM EDT
Civil Twilight 5:12 AM EDT 7:58 PM EDT
Nautical Twilight 4:34 AM EDT 8:36 PM EDT
Astronomical Twilight 3:54 AM EDT 9:16 PM EDT
Moon 3:01 PM EDT 3:12 AM EDT
Length of Visible Light 14h 46m
Length of Day
13h 45m
Waxing Gibbous, 79% of the Moon is Illuminated
Apr 21
Waxing Gibbous
Apr 25
Full
May 2
Last Quarter
May 9
New
May 18
First Quarter

Hourly Weather History & Observations

Time (EDT) Temp. Windchill Dew Point Humidity Pressure Visibility Wind Dir Wind Speed Gust Speed Precip Events Conditions
12:15 AM 44.6 °F 43.1 °F 24.8 °F 46% 30.12 in 10.0 mi WNW 3.5 mph - N/A   Clear
12:35 AM 42.8 °F 41.1 °F 24.8 °F 49% 30.14 in 10.0 mi WNW 3.5 mph - N/A   Clear
12:55 AM 42.8 °F 38.6 °F 24.8 °F 49% 30.15 in 10.0 mi WNW 6.9 mph - N/A   Clear
1:15 AM 42.8 °F 39.3 °F 24.8 °F 49% 30.16 in 10.0 mi WNW 5.8 mph - N/A   Clear
1:35 AM 39.2 °F 37.0 °F 24.8 °F 56% 30.18 in 10.0 mi NNW 3.5 mph - N/A   Clear
1:55 AM 39.2 °F 37.0 °F 24.8 °F 56% 30.18 in 10.0 mi NW 3.5 mph - N/A   Clear
2:15 AM 39.2 °F 35.9 °F 24.8 °F 56% 30.19 in 10.0 mi WNW 4.6 mph - N/A   Clear
2:35 AM 39.2 °F 35.0 °F 21.2 °F 49% 30.20 in 10.0 mi WNW 5.8 mph - N/A   Clear
2:55 AM 37.4 °F 34.9 °F 21.2 °F 52% 30.21 in 10.0 mi NNW 3.5 mph - N/A   Clear
3:15 AM 37.4 °F 31.4 °F 23.0 °F 56% 30.22 in 10.0 mi WNW 8.1 mph - N/A   Clear
3:35 AM 37.4 °F 32.8 °F 23.0 °F 56% 30.23 in 10.0 mi NW 5.8 mph - N/A   Clear
3:55 AM 37.4 °F 32.1 °F 21.2 °F 52% 30.24 in 10.0 mi WNW 6.9 mph - N/A   Clear
4:15 AM 37.4 °F 30.8 °F 23.0 °F 56% 30.26 in 10.0 mi WNW 9.2 mph - N/A   Clear
4:35 AM 35.6 °F 28.6 °F 21.2 °F 56% 30.26 in 10.0 mi WNW 9.2 mph - N/A   Clear
4:55 AM 35.6 °F 29.2 °F 21.2 °F 56% 30.28 in 10.0 mi WNW 8.1 mph - N/A   Clear
5:15 AM 35.6 °F 29.2 °F 21.2 °F 56% 30.29 in 10.0 mi WNW 8.1 mph - N/A   Clear
5:35 AM 35.6 °F 29.2 °F 19.4 °F 52% 30.30 in 10.0 mi NW 8.1 mph - N/A   Clear
5:55 AM 35.6 °F 28.0 °F 19.4 °F 52% 30.31 in 10.0 mi WNW 10.4 mph - N/A   Clear
6:15 AM 35.6 °F 29.9 °F 21.2 °F 56% 30.34 in 10.0 mi WNW 6.9 mph - N/A   Clear
6:35 AM 35.6 °F 29.2 °F 21.2 °F 56% 30.36 in 10.0 mi WNW 8.1 mph - N/A   Clear
6:55 AM 37.4 °F 29.3 °F 21.2 °F 52% 30.37 in 10.0 mi WNW 12.7 mph 18.4 mph N/A   Clear
7:15 AM 37.4 °F 29.3 °F 21.2 °F 52% 30.38 in 10.0 mi WNW 12.7 mph 17.3 mph N/A   Clear
7:55 AM 37.4 °F 28.9 °F 21.2 °F 52% 30.40 in 10.0 mi WNW 13.8 mph - N/A   Clear
8:15 AM 39.2 °F 33.0 °F 23.0 °F 52% 30.41 in 10.0 mi NW 9.2 mph 20.7 mph N/A   Clear
8:35 AM 39.2 °F 31.6 °F 23.0 °F 52% 30.42 in 10.0 mi NW 12.7 mph 20.7 mph N/A   Clear
8:55 AM 39.2 °F 31.6 °F 23.0 °F 52% 30.42 in 10.0 mi WNW 12.7 mph 17.3 mph N/A   Clear
9:15 AM 41.0 °F 34.3 °F 21.2 °F 45% 30.43 in 10.0 mi WNW 11.5 mph 21.9 mph N/A   Clear
9:35 AM 41.0 °F 34.3 °F 21.2 °F 45% 30.44 in 10.0 mi NW 11.5 mph 23.0 mph N/A   Clear
10:15 AM 42.8 °F 34.8 °F 21.2 °F 42% 30.45 in 10.0 mi WNW 17.3 mph 24.2 mph N/A   Clear
10:35 AM 42.8 °F 38.0 °F 21.2 °F 42% 30.47 in 10.0 mi WNW 8.1 mph 16.1 mph N/A   Clear
10:55 AM 42.8 °F 36.2 °F 21.2 °F 42% 30.47 in 10.0 mi WNW 12.7 mph 19.6 mph N/A   Clear
11:15 AM 44.6 °F 39.7 °F 21.2 °F 39% 30.47 in 10.0 mi NNW 9.2 mph 18.4 mph N/A   Clear
11:35 AM 44.6 °F 40.7 °F 19.4 °F 37% 30.47 in 10.0 mi NW 6.9 mph - N/A   Clear
11:55 AM 44.6 °F 40.2 °F 19.4 °F 37% 30.48 in 10.0 mi North 8.1 mph 19.6 mph N/A   Partly Cloudy
12:15 PM 44.6 °F 38.8 °F 19.4 °F 37% 30.48 in 10.0 mi WNW 11.5 mph - N/A   Clear
12:35 PM 44.6 °F 40.7 °F 19.4 °F 37% 30.49 in 10.0 mi WNW 6.9 mph 17.3 mph N/A   Clear
12:55 PM 46.4 °F 43.5 °F 17.6 °F 32% 30.49 in 10.0 mi NNE 5.8 mph 16.1 mph N/A   Partly Cloudy
1:15 PM 46.4 °F 42.4 °F 19.4 °F 34% 30.50 in 10.0 mi North 8.1 mph - N/A   Partly Cloudy
1:35 PM 46.4 °F 41.9 °F 19.4 °F 34% 30.50 in 10.0 mi NNW 9.2 mph - N/A   Partly Cloudy
1:55 PM 46.4 °F 42.4 °F 19.4 °F 34% 30.51 in 10.0 mi WNW 8.1 mph 16.1 mph N/A   Partly Cloudy
2:15 PM 46.4 °F 41.5 °F 19.4 °F 34% 30.50 in 10.0 mi West 10.4 mph - N/A   Clear
2:35 PM 48.2 °F - 19.4 °F 32% 30.50 in 9.0 mi NW 9.2 mph - N/A   Clear
2:55 PM 48.2 °F - 19.4 °F 32% 30.50 in 10.0 mi NW 5.8 mph 16.1 mph N/A   Clear
3:15 PM 48.2 °F - 19.4 °F 32% 30.51 in 10.0 mi North 8.1 mph 19.6 mph N/A   Clear
3:35 PM 48.2 °F - 17.6 °F 30% 30.51 in 10.0 mi NW 11.5 mph - N/A   Clear
3:55 PM 48.2 °F - 17.6 °F 30% 30.51 in 10.0 mi NNW 6.9 mph - N/A   Clear
4:15 PM 48.2 °F - 15.8 °F 27% 30.51 in 10.0 mi North 10.4 mph - N/A   Clear
4:35 PM 48.2 °F - 15.8 °F 27% 30.52 in 10.0 mi NW 9.2 mph 16.1 mph N/A   Clear
4:55 PM 50.0 °F - 15.8 °F 26% 30.53 in 10.0 mi NNW 4.6 mph 18.4 mph N/A   Clear
5:15 PM 48.2 °F - 15.8 °F 27% 30.53 in 10.0 mi WNW 8.1 mph 19.6 mph N/A   Clear
5:35 PM 48.2 °F - 15.8 °F 27% 30.54 in 10.0 mi North 6.9 mph - N/A   Clear
5:55 PM 48.2 °F - 14.0 °F 25% 30.54 in 10.0 mi NW 6.9 mph - N/A   Clear
6:15 PM 48.2 °F - 14.0 °F 25% 30.55 in 10.0 mi NW 8.1 mph - N/A   Clear
6:35 PM 48.2 °F - 14.0 °F 25% 30.56 in 10.0 mi North 3.5 mph - N/A   Clear
6:55 PM 44.6 °F 43.1 °F 24.8 °F 46% 30.57 in 10.0 mi SSE 3.5 mph - N/A   Clear
7:15 PM 44.6 °F 43.1 °F 26.6 °F 49% 30.58 in 10.0 mi South 3.5 mph - N/A   Clear
7:35 PM 42.8 °F 41.1 °F 26.6 °F 53% 30.60 in 10.0 mi SSE 3.5 mph - N/A   Clear
7:55 PM 39.2 °F - 28.4 °F 65% 30.61 in 10.0 mi Calm Calm - N/A   Clear
8:15 PM 39.2 °F - 28.4 °F 65% 30.62 in 10.0 mi Calm Calm - N/A   Clear
8:35 PM 37.4 °F - 28.4 °F 70% 30.63 in 10.0 mi Calm Calm - N/A   Clear
8:55 PM 35.6 °F - 28.4 °F 75% 30.65 in 10.0 mi Calm Calm - N/A   Clear
9:15 PM 35.6 °F - 28.4 °F 75% 30.65 in 10.0 mi Calm Calm - N/A   Clear
9:35 PM 33.8 °F - 28.4 °F 81% 30.66 in 10.0 mi Calm Calm - N/A   Clear
9:55 PM 33.8 °F 30.8 °F 28.4 °F 81% 30.66 in 10.0 mi North 3.5 mph - N/A   Clear
10:15 PM 37.4 °F 34.9 °F 26.6 °F 65% 30.67 in 10.0 mi NNE 3.5 mph - N/A   Clear
10:35 PM 37.4 °F 34.9 °F 21.2 °F 52% 30.67 in 10.0 mi NNE 3.5 mph - N/A   Clear
10:55 PM 39.2 °F - 17.6 °F 42% 30.68 in 10.0 mi Calm Calm - N/A   Clear
11:15 PM 37.4 °F 33.8 °F 21.2 °F 52% 30.68 in 10.0 mi NNE 4.6 mph - N/A   Clear
11:35 PM 39.2 °F 35.9 °F 17.6 °F 42% 30.68 in 10.0 mi North 4.6 mph - N/A   Clear
11:55 PM 39.2 °F 37.0 °F 17.6 °F 42% 30.69 in 10.0 mi North 3.5 mph - N/A   Clear